GW4532 Weather Reports


time (UTC)temp
F
wind
direction
speed
knots
gust
knots
rain 1hr
in
rain 24hr
in
rain mn
in
humidity
%
barometer
mb
20260503232032 63 0.0 0.0 0.00 0.00 0.00 47 1018.7
20260503231030 64 142 0.9 1.7 0.00 0.00 0.00 45 1018.7
20260503230026 65 113 0.0 0.9 0.00 0.00 0.00 44 1018.7
20260503225024 65 0.0 0.0 0.00 0.00 0.00 42 1018.7
20260503223018 66 154 0.9 2.6 0.00 0.00 0.00 41 1018.7
20260503222016 67 173 0.9 3.5 0.00 0.00 0.00 40 1018.7
20260503221031 68 174 0.9 1.7 0.00 0.00 0.00 41 1018.7
20260503220023 69 113 0.0 1.7 0.00 0.00 0.00 38 1018.8
20260503215026 69 131 1.7 3.5 0.00 0.00 0.00 37 1018.9
20260503214031 71 90 0.9 2.6 0.00 0.00 0.00 35 1018.9
20260503213027 72 259 1.7 2.6 0.00 0.00 0.00 36 1018.9
20260503212029 74 158 0.9 1.7 0.00 0.00 0.00 34 1019.1
20260503211032 75 73 2.6 5.2 0.00 0.00 0.00 31 1019.2
20260503210018 80 102 2.6 5.2 0.00 0.00 0.00 28 1019.2
20260503205021 83 208 1.7 3.5 0.00 0.00 0.00 27 1019.2
20260503203027 84 105 2.6 4.3 0.00 0.00 0.00 26 1019.6
20260503202024 85 344 1.7 4.3 0.00 0.00 0.00 26 1019.6
20260503201022 85 99 1.7 4.3 0.00 0.00 0.00 27 1019.9
20260503200120 86 122 1.7 3.5 0.00 0.00 0.00 25 1020.1
20260503195017 85 40 1.7 2.6 0.00 0.00 0.00 24 1020.1
20260503194032 84 138 1.7 3.5 0.00 0.00 0.00 26 1020.1
20260503193018 85 66 1.7 3.5 0.00 0.00 0.00 24 1020.3
20260503192016 84 174 2.6 4.3 0.00 0.00 0.00 24 1020.5
20260503191018 85 155 2.6 4.3 0.00 0.00 0.00 24 1020.5
20260503190022 84 291 1.7 3.5 0.00 0.00 0.00 23 1020.6
20260503185018 83 181 1.7 3.5 0.00 0.00 0.00 23 1020.7
20260503184022 82 30 1.7 3.5 0.00 0.00 0.00 24 1020.9
20260503183100 81 58 2.6 5.2 0.00 0.00 0.00 25 1020.9
20260503182016 81 32 1.7 2.6 0.00 0.00 0.00 25 1021.1
20260503181032 80 104 2.6 5.2 0.00 0.00 0.00 27 1021.3
20260503180030 79 208 2.6 4.3 0.00 0.00 0.00 25 1021.4
20260503175032 80 216 2.6 3.5 0.00 0.00 0.00 27 1021.4
20260503174018 79 143 1.7 2.6 0.00 0.00 0.00 28 1021.6
20260503173101 78 265 1.7 2.6 0.00 0.00 0.00 30 1021.9
20260503172024 76 41 1.7 2.6 0.00 0.00 0.00 30 1022.1
20260503131016 45 295 0.9 1.7 0.00 0.00 0.00 82 1023.2
20260503081024 36 0.0 0.0 0.00 0.00 0.00 90 1020.5
20260503072017 36 0.0 0.0 0.00 0.00 0.00 89 1020.1
20260503071033 36 0.0 0.0 0.00 0.00 0.00 89 1020.0
20260503055028 38 173 0.9 1.7 0.00 0.00 0.00 88 1020.0
20260503054026 38 0.0 0.0 0.00 0.00 0.00 88 1020.1
20260503053024 38 209 0.9 1.7 0.00 0.00 0.00 87 1020.0
20260503051019 38 203 0.0 0.9 0.00 0.00 0.00 86 1019.9
20260503050016 39 113 0.0 0.9 0.00 0.00 0.00 84 1019.9
20260503045026 39 113 0.9 1.7 0.00 0.00 0.00 83 1019.9
20260503044029 40 0.0 0.0 0.00 0.00 0.00 84 1019.7
20260503043027 40 100 0.9 1.7 0.00 0.00 0.00 83 1019.6
20260503042131 40 103 0.0 1.7 0.00 0.00 0.00 82 1019.6
20260503041027 41 158 0.0 0.9 0.00 0.00 0.00 81 1019.4
20260503040024 41 302 0.0 1.7 0.00 0.00 0.00 80 1019.4
20260503035022 41 180 0.0 1.7 0.00 0.00 0.00 80 1019.4
20260503034019 42 203 0.0 1.7 0.00 0.00 0.00 78 1019.4
20260503033117 42 191 0.0 0.9 0.00 0.00 0.00 76 1019.1
20260503032033 42 98 0.9 2.6 0.00 0.00 0.00 77 1019.1
20260503031031 43 0.0 0.0 0.00 0.00 0.00 74 1019.0
20260503030033 44 0.0 0.0 0.00 0.00 0.00 71 1018.9
20260503025019 45 0.0 0.0 0.00 0.00 0.00 69 1018.9
20260503024023 45 82 0.0 1.7 0.00 0.00 0.00 69 1018.7
20260503023026 46 23 0.0 0.9 0.00 0.00 0.00 66 1018.7
20260503022028 47 68 0.0 0.9 0.00 0.00 0.00 65 1018.4
20260503021032 48 104 0.0 1.7 0.00 0.00 0.00 64 1018.4
20260503020017 49 104 0.9 1.7 0.00 0.00 0.00 61 1018.4
20260503015026 50 0.0 0.0 0.00 0.00 0.00 56 1018.3
20260503014023 51 0.0 0.0 0.00 0.00 0.00 55 1018.1
20260503013020 51 1 1.7 2.6 0.00 0.00 0.00 52 1017.9
20260503012017 52 44 2.6 3.5 0.00 0.00 0.00 51 1017.8
20260503011020 52 12 1.7 1.7 0.00 0.00 0.00 48 1017.6
20260503010018 53 17 1.7 2.6 0.00 0.00 0.00 48 1017.5
20260503005033 53 47 1.7 3.5 0.00 0.00 0.00 49 1017.4
20260503004018 54 281 0.9 1.7 0.00 0.00 0.00 46 1017.3
20260503003021 55 327 1.7 2.6 0.00 0.00 0.00 45 1017.1
20260503002019 55 354 1.7 3.5 0.00 0.00 0.00 43 1016.8
20260503001023 56 9 1.7 2.6 0.00 0.00 0.00 42 1016.6
20260503000020 56 30 1.7 2.6 0.00 0.00 0.00 42 1016.5
20260502235018 57 27 2.6 6.1 0.00 0.00 0.00 41 1016.3
20260502234016 57 116 0.9 3.5 0.00 0.00 0.00 50 1016.2
20260502233031 57 36 0.9 1.7 0.00 0.00 0.00 48 1016.0